TimePDT,TemperatureF,Dew PointF,Humidity,Sea Level PressureIn,VisibilityMPH,Wind Direction,Wind SpeedMPH,Gust SpeedMPH,PrecipitationIn,Events,Conditions,WindDirDegrees,DateUTC
12:10 AM,48.2,46.4,93,29.95,3.0,North,6.9,-,N/A,,Overcast,350,2013-04-12 07:10:00
12:30 AM,48.2,46.4,93,29.94,3.0,North,9.2,-,N/A,,Overcast,350,2013-04-12 07:30:00
12:50 AM,48.2,44.6,87,29.93,3.0,North,5.8,-,N/A,,Mostly Cloudy,350,2013-04-12 07:50:00
1:10 AM,48.2,44.6,87,29.94,3.0,North,4.6,-,N/A,,Mostly Cloudy,350,2013-04-12 08:10:00
1:30 AM,48.2,46.4,93,29.94,3.0,North,4.6,-,N/A,,Overcast,350,2013-04-12 08:30:00
1:50 AM,48.2,46.4,93,29.93,3.0,North,6.9,-,N/A,,Overcast,360,2013-04-12 08:50:00
2:10 AM,48.2,44.6,87,29.92,3.0,North,5.8,-,N/A,,Overcast,360,2013-04-12 09:10:00
2:30 AM,46.4,42.8,87,29.93,4.0,East,3.5,-,N/A,,Overcast,90,2013-04-12 09:30:00
2:50 AM,44.6,42.8,93,29.92,4.0,Calm,Calm,-,N/A,,Overcast,0,2013-04-12 09:50:00
3:10 AM,46.4,42.8,87,29.92,4.0,Calm,Calm,-,N/A,,Overcast,0,2013-04-12 10:10:00
3:30 AM,46.4,42.8,87,29.91,5.0,Calm,Calm,-,N/A,,Overcast,0,2013-04-12 10:30:00
3:50 AM,46.4,42.8,87,29.91,5.0,ENE,4.6,-,N/A,,Overcast,60,2013-04-12 10:50:00
4:10 AM,46.4,44.6,93,29.91,4.0,ENE,5.8,-,N/A,,Overcast,70,2013-04-12 11:10:00
4:30 AM,46.4,44.6,93,29.91,4.0,ENE,4.6,-,N/A,,Overcast,70,2013-04-12 11:30:00
4:50 AM,46.4,44.6,93,29.91,4.0,East,4.6,-,N/A,,Overcast,80,2013-04-12 11:50:00
5:10 AM,48.2,44.6,87,29.91,4.0,East,3.5,-,N/A,,Overcast,80,2013-04-12 12:10:00
5:30 AM,46.4,44.6,93,29.92,4.0,East,5.8,-,N/A,,Overcast,90,2013-04-12 12:30:00
5:50 AM,46.4,44.6,93,29.92,4.0,East,3.5,-,N/A,,Overcast,90,2013-04-12 12:50:00
6:10 AM,48.2,46.4,93,29.92,3.0,Calm,Calm,-,N/A,,Overcast,0,2013-04-12 13:10:00
6:30 AM,48.2,44.6,87,29.92,4.0,East,3.5,-,N/A,,Overcast,90,2013-04-12 13:30:00
6:50 AM,48.2,46.4,93,29.93,3.0,ENE,3.5,-,N/A,,Overcast,60,2013-04-12 13:50:00
7:10 AM,48.2,44.6,87,29.94,3.0,East,3.5,-,N/A,,Overcast,80,2013-04-12 14:10:00
7:50 AM,48.2,46.4,93,29.95,2.5,Calm,Calm,-,N/A,,Overcast,0,2013-04-12 14:50:00
8:10 AM,48.2,46.4,93,29.95,3.0,NNW,5.8,-,N/A,,Overcast,340,2013-04-12 15:10:00
8:30 AM,48.2,46.4,93,29.96,3.0,NNW,3.5,-,N/A,,Overcast,340,2013-04-12 15:30:00
8:50 AM,48.2,46.4,93,29.96,3.0,North,8.1,-,N/A,,Mostly Cloudy,350,2013-04-12 15:50:00
9:10 AM,48.2,46.4,93,29.96,3.0,NNE,3.5,-,N/A,,Mostly Cloudy,20,2013-04-12 16:10:00
9:30 AM,48.2,46.4,93,29.97,3.0,North,3.5,-,N/A,,Mostly Cloudy,350,2013-04-12 16:30:00
9:50 AM,48.2,46.4,93,29.97,3.0,WNW,3.5,-,N/A,,Scattered Clouds,290,2013-04-12 16:50:00
10:10 AM,50.0,46.4,87,29.96,2.5,West,4.6,-,N/A,,Scattered Clouds,260,2013-04-12 17:10:00
10:30 AM,50.0,46.4,87,29.96,2.5,WNW,3.5,-,N/A,,Partly Cloudy,290,2013-04-12 17:30:00
10:50 AM,50.0,46.4,87,29.97,3.0,West,6.9,-,N/A,,Clear,260,2013-04-12 17:50:00
11:10 AM,51.8,48.2,88,29.96,3.0,WSW,8.1,-,N/A,,Clear,250,2013-04-12 18:10:00
11:30 AM,51.8,48.2,88,29.96,3.0,West,8.1,-,N/A,,Clear,260,2013-04-12 18:30:00
11:50 AM,51.8,48.2,88,29.96,3.0,West,9.2,-,N/A,,Clear,260,2013-04-12 18:50:00
12:10 PM,50.0,48.2,94,29.96,2.5,West,6.9,-,N/A,,Clear,270,2013-04-12 19:10:00
12:30 PM,50.0,48.2,94,29.96,2.5,NW,9.2,-,N/A,,Clear,320,2013-04-12 19:30:00
12:50 PM,53.6,48.2,82,29.96,3.0,NNW,12.7,-,N/A,,Haze,340,2013-04-12 19:50:00
1:10 PM,53.6,48.2,82,29.95,3.0,NNW,12.7,-,N/A,,Clear,330,2013-04-12 20:10:00
1:30 PM,55.4,48.2,77,29.94,3.0,NNW,12.7,-,N/A,,Haze,340,2013-04-12 20:30:00
1:50 PM,53.6,48.2,82,29.93,4.0,NNW,13.8,-,N/A,,Haze,330,2013-04-12 20:50:00
2:10 PM,55.4,48.2,77,29.93,3.0,NNW,12.7,-,N/A,,Haze,330,2013-04-12 21:10:00
2:30 PM,53.6,48.2,82,29.93,4.0,NNW,13.8,-,N/A,,Haze,330,2013-04-12 21:30:00
2:45 PM,-9999,-9999,N/A,-9999,-9999.0,North,-9999.0,-,N/A,,Unknown,0,2013-04-12 21:45:00
4:35 PM,-9999,-9999,N/A,-9999,-9999.0,North,-9999.0,-,N/A,,Unknown,0,2013-04-12 23:35:00
4:50 PM,53.6,48.2,82,29.93,4.0,NNW,16.1,24.2,N/A,,Haze,340,2013-04-12 23:50:00
5:10 PM,53.6,46.4,77,29.92,4.0,North,15.0,23.0,N/A,,Haze,360,2013-04-13 00:10:00
5:30 PM,53.6,46.4,77,29.92,4.0,North,15.0,23.0,N/A,,Haze,360,2013-04-13 00:30:00
5:50 PM,51.8,46.4,82,29.92,4.0,NNW,15.0,-,N/A,,Haze,340,2013-04-13 00:50:00
6:10 PM,51.8,46.4,82,29.92,3.0,NNW,16.1,-,N/A,,Haze,340,2013-04-13 01:10:00
6:30 PM,50.0,46.4,87,29.93,4.0,North,13.8,21.9,N/A,,Haze,350,2013-04-13 01:30:00
6:50 PM,50.0,46.4,87,29.92,4.0,North,13.8,20.7,N/A,,Haze,350,2013-04-13 01:50:00
7:10 PM,50.0,46.4,87,29.92,4.0,North,13.8,21.9,N/A,,Partly Cloudy,360,2013-04-13 02:10:00
7:30 PM,50.0,46.4,87,29.92,3.0,North,9.2,-,N/A,,Scattered Clouds,350,2013-04-13 02:30:00
7:50 PM,50.0,44.6,82,29.92,3.0,North,9.2,-,N/A,,Haze,350,2013-04-13 02:50:00
8:10 PM,48.2,44.6,87,29.92,5.0,North,6.9,-,N/A,,Clear,360,2013-04-13 03:10:00
8:30 PM,48.2,44.6,87,29.93,5.0,NNW,4.6,-,N/A,,Clear,340,2013-04-13 03:30:00
8:50 PM,48.2,44.6,87,29.93,5.0,North,3.5,-,N/A,,Clear,350,2013-04-13 03:50:00
9:10 PM,48.2,44.6,87,29.94,5.0,Calm,Calm,-,N/A,,Clear,0,2013-04-13 04:10:00
9:30 PM,48.2,44.6,87,29.95,5.0,North,4.6,-,N/A,,Partly Cloudy,360,2013-04-13 04:30:00
9:50 PM,48.2,44.6,87,29.96,5.0,NNW,8.1,-,N/A,,Mostly Cloudy,340,2013-04-13 04:50:00
10:10 PM,48.2,44.6,87,29.96,5.0,NNW,10.4,-,N/A,,Overcast,340,2013-04-13 05:10:00
10:30 PM,48.2,46.4,93,29.96,5.0,NNW,12.7,-,N/A,,Overcast,340,2013-04-13 05:30:00
10:50 PM,48.2,44.6,87,29.96,5.0,NNW,10.4,-,N/A,,Overcast,340,2013-04-13 05:50:00
11:10 PM,48.2,44.6,87,29.96,5.0,NNW,11.5,-,N/A,,Overcast,340,2013-04-13 06:10:00
11:30 PM,48.2,44.6,87,29.95,5.0,North,11.5,20.7,N/A,,Overcast,350,2013-04-13 06:30:00
11:50 PM,48.2,44.6,87,29.95,5.0,NNW,10.4,-,N/A,,Mostly Cloudy,340,2013-04-13 06:50:00